• In Uzbekistan
  • List of Countries
  • For 7 days
  • Water Temperature
  • Satellite Maps
  • Weather Map
  • Weather Widgets
  • user-avatar
    Login

    Hourly Weather Czyzyki

    Today, 23 September, Sunday

    Time Temperature Precipitation Wind Pressure Humidity
    00:00 +8°C° 0 mm 3 mps 745 mmHg 78%
    01:00 +8°C° 0 mm 3 mps 745 mmHg 79%
    02:00 +7°C° 0 mm 3 mps 745 mmHg 82%
    03:00 +7°C° 0 mm 3 mps 745 mmHg 82%
    04:00 +7°C° 0 mm 3 mps 745 mmHg 82%
    05:00 +6°C° 0 mm 4 mps 745 mmHg 81%
    06:00 +7°C° 0 mm 4 mps 745 mmHg 78%
    07:00 +8°C° 0 mm 4 mps 744 mmHg 75%
    08:00 +9°C° 0 mm 5 mps 744 mmHg 72%
    09:00 +10°C° 0 mm 5 mps 744 mmHg 66%
    10:00 +13°C° 0 mm 5 mps 744 mmHg 61%
    11:00 +14°C° 0 mm 6 mps 744 mmHg 55%
    12:00 +14°C° 0.3 mm 5 mps 744 mmHg 60%
    13:00 +14°C° 0.3 mm 5 mps 744 mmHg 64%
    14:00 +13°C° 0.3 mm 5 mps 743 mmHg 68%
    15:00 +13°C° 0.1 mm 5 mps 743 mmHg 69%
    16:00 +13°C° 0.1 mm 4 mps 743 mmHg 70%
    17:00 +13°C° 0.1 mm 4 mps 743 mmHg 70%
    18:00 +12°C° 0 mm 3 mps 742 mmHg 75%
    19:00 +11°C° 0 mm 3 mps 741 mmHg 80%
    20:00 +10°C° 0 mm 2 mps 741 mmHg 84%
    21:00 +10°C° 1.3 mm 2 mps 740 mmHg 88%
    22:00 +10°C° 1.3 mm 3 mps 739 mmHg 91%
    23:00 +10°C° 1.3 mm 3 mps 739 mmHg 94%

    Tomorrow, 24 September, Monday

    Time Temperature Precipitation Wind Pressure Humidity
    00:00 +10°C° 1.8 mm 3 mps 738 mmHg 94%
    01:00 +9°C° 1.8 mm 3 mps 737 mmHg 94%
    02:00 +9°C° 1.8 mm 3 mps 736 mmHg 94%
    03:00 +8°C° 0.8 mm 4 mps 735 mmHg 94%
    04:00 +8°C° 0.8 mm 4 mps 734 mmHg 94%
    05:00 +8°C° 0.8 mm 4 mps 734 mmHg 94%
    06:00 +8°C° 1.3 mm 5 mps 735 mmHg 92%
    07:00 +8°C° 1.3 mm 6 mps 735 mmHg 90%
    08:00 +6°C° 1.3 mm 7 mps 736 mmHg 89%
    09:00 +8°C° 0.5 mm 7 mps 737 mmHg 86%
    10:00 +8°C° 0.5 mm 7 mps 737 mmHg 83%
    11:00 +9°C° 0.5 mm 7 mps 738 mmHg 80%
    12:00 +10°C° 0.2 mm 7 mps 739 mmHg 75%
    13:00 +11°C° 0.2 mm 8 mps 739 mmHg 70%
    14:00 +12°C° 0.2 mm 8 mps 740 mmHg 64%
    15:00 +11°C° 0.2 mm 7 mps 740 mmHg 64%
    16:00 +11°C° 0.2 mm 7 mps 740 mmHg 64%
    17:00 +10°C° 0.2 mm 6 mps 741 mmHg 65%
    18:00 +10°C° 0.4 mm 6 mps 741 mmHg 69%
    19:00 +9°C° 0.4 mm 6 mps 742 mmHg 74%
    20:00 +8°C° 0.4 mm 6 mps 742 mmHg 78%
    21:00 +7°C° 0.4 mm 6 mps 743 mmHg 81%
    22:00 +7°C° 0.4 mm 6 mps 744 mmHg 83%
    23:00 +5°C° 0.4 mm 7 mps 745 mmHg 86%

    Day after tomorrow, 25 September, Tuesday

    Time Temperature Precipitation Wind Pressure Humidity
    00:00 +5°C° 0.2 mm 6 mps 745 mmHg 85%
    01:00 +4°C° 0.2 mm 6 mps 746 mmHg 84%
    02:00 +3°C° 0.2 mm 6 mps 747 mmHg 84%
    03:00 +3°C° 0 mm 5 mps 748 mmHg 83%
    04:00 +3°C° 0 mm 5 mps 748 mmHg 83%
    05:00 +2°C° 0 mm 5 mps 749 mmHg 83%
    06:00 +3°C° 0 mm 6 mps 750 mmHg 81%
    07:00 +3°C° 0 mm 6 mps 750 mmHg 79%
    08:00 +4°C° 0 mm 6 mps 751 mmHg 77%
    09:00 +5°C° 0.1 mm 7 mps 751 mmHg 71%
    10:00 +6°C° 0.1 mm 7 mps 751 mmHg 64%
    11:00 +9°C° 0.1 mm 7 mps 752 mmHg 58%
    12:00 +9°C° 0.2 mm 8 mps 752 mmHg 57%
    13:00 +9°C° 0.2 mm 8 mps 752 mmHg 56%
    14:00 +9°C° 0.2 mm 8 mps 752 mmHg 56%
    15:00 +9°C° 0.1 mm 7 mps 753 mmHg 57%
    16:00 +9°C° 0.1 mm 7 mps 753 mmHg 59%
    17:00 +8°C° 0.1 mm 6 mps 753 mmHg 61%
    18:00 +7°C° 0 mm 6 mps 754 mmHg 64%
    19:00 +6°C° 0 mm 5 mps 755 mmHg 67%
    20:00 +5°C° 0 mm 4 mps 755 mmHg 69%
    21:00 +5°C° 0 mm 4 mps 756 mmHg 72%
    22:00 +4°C° 0 mm 4 mps 756 mmHg 74%
    23:00 +4°C° 0 mm 4 mps 757 mmHg 76%

    26 September, Wednesday

    Time Temperature Precipitation Wind Pressure Humidity
    00:00 +4°C° 0 mm 4 mps 757 mmHg 77%
    01:00 +3°C° 0 mm 3 mps 757 mmHg 79%
    02:00 +3°C° 0 mm 3 mps 758 mmHg 81%
    03:00 +2°C° 0 mm 3 mps 758 mmHg 81%
    04:00 +2°C° 0 mm 3 mps 758 mmHg 81%
    05:00 +2°C° 0 mm 3 mps 758 mmHg 81%
    06:00 +3°C° 0 mm 3 mps 758 mmHg 76%
    07:00 +4°C° 0 mm 3 mps 758 mmHg 71%
    08:00 +4°C° 0 mm 4 mps 758 mmHg 66%
    09:00 +6°C° 0 mm 4 mps 758 mmHg 62%
    10:00 +8°C° 0 mm 5 mps 758 mmHg 59%
    11:00 +10°C° 0 mm 5 mps 757 mmHg 55%
    12:00 +11°C° 0 mm 6 mps 757 mmHg 54%
    13:00 +11°C° 0 mm 6 mps 756 mmHg 53%
    14:00 +13°C° 0 mm 6 mps 755 mmHg 52%
    15:00 +13°C° 0 mm 6 mps 755 mmHg 53%
    16:00 +11°C° 0 mm 6 mps 754 mmHg 53%
    17:00 +12°C° 0 mm 5 mps 754 mmHg 54%
    18:00 +10°C° 0 mm 5 mps 753 mmHg 55%
    19:00 +10°C° 0 mm 6 mps 753 mmHg 56%
    20:00 +9°C° 0 mm 6 mps 752 mmHg 58%
    21:00 +9°C° 0 mm 6 mps 752 mmHg 56%
    22:00 +9°C° 0 mm 6 mps 751 mmHg 55%
    23:00 +10°C° 0 mm 7 mps 751 mmHg 54%

    27 September, Thursday

    Time Temperature Precipitation Wind Pressure Humidity
    00:00 +9°C° 0.1 mm 7 mps 750 mmHg 57%
    01:00 +9°C° 0.1 mm 7 mps 750 mmHg 59%
    02:00 +9°C° 0.1 mm 7 mps 749 mmHg 62%
    03:00 +9°C° 0.2 mm 7 mps 748 mmHg 67%
    04:00 +9°C° 0.2 mm 8 mps 748 mmHg 72%
    05:00 +9°C° 0.2 mm 8 mps 747 mmHg 77%
    06:00 +9°C° 0.3 mm 8 mps 747 mmHg 78%
    07:00 +9°C° 0.3 mm 8 mps 747 mmHg 79%
    08:00 +9°C° 0.3 mm 8 mps 747 mmHg 80%
    09:00 +10°C° 0.1 mm 8 mps 747 mmHg 79%
    10:00 +10°C° 0.1 mm 8 mps 747 mmHg 79%
    11:00 +11°C° 0.1 mm 8 mps 747 mmHg 78%
    12:00 +12°C° 0 mm 8 mps 747 mmHg 77%
    13:00 +14°C° 0 mm 7 mps 747 mmHg 77%
    14:00 +14°C° 0 mm 7 mps 747 mmHg 77%
    15:00 +14°C° 0.1 mm 7 mps 747 mmHg 77%
    16:00 +14°C° 0.1 mm 6 mps 747 mmHg 78%
    17:00 +15°C° 0.1 mm 6 mps 748 mmHg 78%
    18:00 +14°C° 0 mm 5 mps 748 mmHg 82%
    19:00 +13°C° 0 mm 4 mps 748 mmHg 86%
    20:00 +12°C° 0 mm 4 mps 748 mmHg 89%
    21:00 +11°C° 0 mm 3 mps 749 mmHg 91%
    22:00 +11°C° 0 mm 3 mps 749 mmHg 93%
    23:00 +10°C° 0 mm 3 mps 749 mmHg 94%

    28 September, Friday

    Time Temperature Precipitation Wind Pressure Humidity
    00:00 +10°C° 0 mm 3 mps 748 mmHg 95%
    01:00 +10°C° 0 mm 3 mps 748 mmHg 96%
    02:00 +10°C° 0 mm 3 mps 748 mmHg 96%
    03:00 +11°C° 0 mm 4 mps 747 mmHg 96%
    04:00 +10°C° 0 mm 5 mps 746 mmHg 95%
    05:00 +11°C° 0 mm 6 mps 746 mmHg 94%
    06:00 +12°C° 0.1 mm 7 mps 745 mmHg 92%
    07:00 +12°C° 0.1 mm 7 mps 745 mmHg 89%
    08:00 +13°C° 0.1 mm 8 mps 745 mmHg 87%
    09:00 +13°C° 0.2 mm 8 mps 745 mmHg 84%
    10:00 +15°C° 0.2 mm 8 mps 746 mmHg 82%
    11:00 +15°C° 0.2 mm 8 mps 746 mmHg 79%
    12:00 +15°C° 0.1 mm 7 mps 746 mmHg 76%
    13:00 +15°C° 0.1 mm 6 mps 747 mmHg 72%
    14:00 +14°C° 0.1 mm 5 mps 747 mmHg 69%
    15:00 +14°C° 0 mm 4 mps 747 mmHg 67%
    16:00 +14°C° 0 mm 4 mps 748 mmHg 66%
    17:00 +14°C° 0 mm 3 mps 748 mmHg 65%
    18:00 +13°C° 0 mm 2 mps 748 mmHg 68%
    19:00 +12°C° 0 mm 2 mps 749 mmHg 72%
    20:00 +11°C° 0 mm 1 mps 749 mmHg 75%
    21:00 +10°C° 0 mm 1 mps 749 mmHg 77%
    22:00 +10°C° 0 mm 1 mps 750 mmHg 79%
    23:00 +9°C° 0 mm 1 mps 750 mmHg 81%
    Show more